Find Kuiper-00139

NORAD ID: 65765 Int'l Des: 2025-217 Owner: KUIP Country: US Constellation: amazon-leo operational
LEOCIRCULARSTARLINK_TYPE

現在のビュー

3D地球を読み込み中...

About Kuiper-00139

Kuiper-00139 (NORAD 65765) is a amazon-leo constellation satellite launched Sep 25, 2025 by KUIP of US. It operates in LEO, CIRCULAR, STARLINK_TYPE orbit with a mass of 490.00 kg.

次回通過

Passes for default location (London). Set your location on the main map for personalized predictions.

高度履歴

Loading altitude history...

軌道要素

1 65765U 25217D 26230.40770797 .00002987 00000-0 42047-3 0 9996
2 65765 51.8996 25.4984 0000551 127.0908 233.0104 14.79955690 49145
Epoch: Aug 18, 2026 • Age: 14 hours

現在のステータス

高度 631.8 km
遠地点 / 近地点 N/A
速度 7.55 km/s
衛星直下点 36.61°N, 149.84°W
打ち上げ日 Sep 25, 2025
運用期間 0.8 years
タイプ internet

技術仕様

分類 Payload
質量 490.00 kg
乾燥質量 490.00 kg
総質量 490.00 kg
長さ 1.80 m
直径 0.70 m
スパン 5.00 m
形状 Box + 2 pan
製造者 KUIP
バスタイプ Kuiper
フェーズステータス In Orbit
所有者/国 KUIP/US

Most Searched